Location: Newark
(40.9833°N, 0.0333°W)
Time: 02:24:44
(UTC+00:00)

Transit 2A Rocket - Pass Details

Date: 31 October 2020
Orbit: 588 x 914 km, 66.7° (Epoch: 26 November)

Event Time Altitude Azimuth Distance (km) Brightness Sun altitude
Rises 19:04:30 0° 314° (NW) 3,188 8.9 -24.6°
Reaches altitude 10° 19:07:44 10° 294° (WNW) 2,189 8.3 -25.2°
Maximum altitude 19:10:48 17° 256° (WSW) 1,720 7.6 -25.8°
Drops below altitude 10° 19:13:42 10° 217° (SW) 2,058 7.6 -26.3°
Sets 19:16:37 0° 196° (SSW) 2,909 8.2 -26.9°
